PRIVATE WETTERSTATION BILLIGHEIM-ALLFELD                       ZURCK
Wetterdaten: Freitag, 26.05.2017
Datum Zeit Temp. A. Temp. A. min Temp. A. max Feuchte A. Luftdruck Regen Wind Richtung Richtung Sonnenschein ET Solar Taupunkt Windchill Windben Empfang
26.05.2017 00:00 13,1 C 13,1 C 13,3 C 82 % 1020,2 hPa 0,0 l/m 0,0 km/h (0 Bft) N 0 0 min 0,025 mm 0 W/m 10,1 C 13,1 C 0,0 km/h (0 Bft) 100 %
26.05.2017 00:10 12,8 C 12,8 C 13,1 C 83 % 1020,3 hPa 0,0 l/m 0,0 km/h (0 Bft) N 0 0 min 0,000 mm 0 W/m 10,0 C 12,8 C 0,0 km/h (0 Bft) 100 %
26.05.2017 00:20 12,6 C 12,6 C 12,8 C 83 % 1020,3 hPa 0,0 l/m 0,0 km/h (0 Bft) N 0 0 min 0,000 mm 0 W/m 9,8 C 12,6 C 0,0 km/h (0 Bft) 100 %
26.05.2017 00:30 12,4 C 12,4 C 12,6 C 84 % 1020,4 hPa 0,0 l/m 0,0 km/h (0 Bft) N 0 0 min 0,000 mm 0 W/m 9,8 C 12,4 C 0,0 km/h (0 Bft) 100 %
26.05.2017 00:40 12,3 C 12,3 C 12,4 C 84 % 1020,2 hPa 0,0 l/m 0,0 km/h (0 Bft) N 0 0 min 0,000 mm 0 W/m 9,7 C 12,3 C 0,0 km/h (0 Bft) 100 %
26.05.2017 00:50 12,1 C 12,1 C 12,3 C 85 % 1020,2 hPa 0,0 l/m 0,0 km/h (0 Bft) N 0 0 min 0,000 mm 0 W/m 9,7 C 12,1 C 0,0 km/h (0 Bft) 100 %
26.05.2017 01:00 11,9 C 11,9 C 12,1 C 85 % 1020,1 hPa 0,0 l/m 0,0 km/h (0 Bft) N 0 0 min 0,000 mm 0 W/m 9,5 C 11,9 C 0,0 km/h (0 Bft) 89 %
26.05.2017 01:10 11,9 C 11,9 C 11,9 C 85 % 1020,1 hPa 0,0 l/m 0,0 km/h (0 Bft) N 0 0 min 0,000 mm 0 W/m 9,5 C 11,9 C 0,0 km/h (0 Bft) 100 %
26.05.2017 01:20 11,8 C 11,8 C 11,9 C 86 % 1020,0 hPa 0,0 l/m 0,0 km/h (0 Bft) N 0 0 min 0,000 mm 0 W/m 9,5 C 11,8 C 0,0 km/h (0 Bft) 100 %
26.05.2017 01:30 11,8 C 11,8 C 11,8 C 86 % 1020,0 hPa 0,0 l/m 0,0 km/h (0 Bft) N 0 0 min 0,000 mm 0 W/m 9,5 C 11,8 C 0,0 km/h (0 Bft) 99 %
26.05.2017 01:40 11,7 C 11,7 C 11,8 C 86 % 1020,0 hPa 0,0 l/m 0,0 km/h (0 Bft) N 0 0 min 0,000 mm 0 W/m 9,4 C 11,7 C 0,0 km/h (0 Bft) 100 %
26.05.2017 01:50 11,6 C 11,6 C 11,7 C 85 % 1019,8 hPa 0,0 l/m 0,0 km/h (0 Bft) N 0 0 min 0,000 mm 0 W/m 9,2 C 11,6 C 0,0 km/h (0 Bft) 100 %
26.05.2017 02:00 11,4 C 11,4 C 11,6 C 85 % 1019,8 hPa 0,0 l/m 0,0 km/h (0 Bft) N 0 0 min 0,000 mm 0 W/m 9,0 C 11,4 C 0,0 km/h (0 Bft) 100 %
26.05.2017 02:10 11,3 C 11,3 C 11,4 C 86 % 1019,8 hPa 0,0 l/m 0,0 km/h (0 Bft) N 0 0 min 0,000 mm 0 W/m 9,0 C 11,3 C 0,0 km/h (0 Bft) 100 %
26.05.2017 02:20 11,1 C 11,1 C 11,3 C 86 % 1019,7 hPa 0,0 l/m 0,0 km/h (0 Bft) N 0 0 min 0,000 mm 0 W/m 8,8 C 11,1 C 0,0 km/h (0 Bft) 100 %
26.05.2017 02:30 11,0 C 11,0 C 11,1 C 86 % 1019,7 hPa 0,0 l/m 0,0 km/h (0 Bft) N 0 0 min 0,000 mm 0 W/m 8,7 C 11,0 C 0,0 km/h (0 Bft) 100 %
26.05.2017 02:40 10,9 C 10,9 C 11,0 C 86 % 1019,7 hPa 0,0 l/m 0,0 km/h (0 Bft) N 0 0 min 0,000 mm 0 W/m 8,7 C 10,9 C 0,0 km/h (0 Bft) 100 %
26.05.2017 02:50 10,8 C 10,8 C 10,9 C 87 % 1019,7 hPa 0,0 l/m 0,0 km/h (0 Bft) N 0 0 min 0,000 mm 0 W/m 8,7 C 10,8 C 0,0 km/h (0 Bft) 100 %
26.05.2017 03:00 10,6 C 10,6 C 10,8 C 87 % 1019,7 hPa 0,0 l/m 0,0 km/h (0 Bft) N 0 0 min 0,000 mm 0 W/m 8,5 C 10,6 C 0,0 km/h (0 Bft) 100 %
26.05.2017 03:10 10,5 C 10,5 C 10,6 C 87 % 1019,7 hPa 0,0 l/m 0,0 km/h (0 Bft) N 0 0 min 0,000 mm 0 W/m 8,4 C 10,5 C 0,0 km/h (0 Bft) 100 %
26.05.2017 03:20 10,3 C 10,3 C 10,5 C 88 % 1019,8 hPa 0,0 l/m 0,0 km/h (0 Bft) N 0 0 min 0,000 mm 0 W/m 8,4 C 10,3 C 0,0 km/h (0 Bft) 100 %
26.05.2017 03:30 10,2 C 10,2 C 10,3 C 88 % 1019,8 hPa 0,0 l/m 0,0 km/h (0 Bft) N 0 0 min 0,000 mm 0 W/m 8,3 C 10,2 C 0,0 km/h (0 Bft) 100 %
26.05.2017 03:40 10,1 C 10,1 C 10,2 C 88 % 1020,0 hPa 0,0 l/m 0,0 km/h (0 Bft) N 0 0 min 0,000 mm 0 W/m 8,2 C 10,1 C 0,0 km/h (0 Bft) 100 %
26.05.2017 03:50 10,1 C 10,1 C 10,1 C 89 % 1020,0 hPa 0,0 l/m 0,0 km/h (0 Bft) N 0 0 min 0,000 mm 0 W/m 8,4 C 10,1 C 0,0 km/h (0 Bft) 99 %
26.05.2017 04:00 10,2 C 10,1 C 10,2 C 89 % 1020,0 hPa 0,0 l/m 0,0 km/h (0 Bft) N 0 0 min 0,000 mm 0 W/m 8,5 C 10,2 C 0,0 km/h (0 Bft) 88 %
26.05.2017 04:10 10,3 C 10,2 C 10,3 C 89 % 1020,0 hPa 0,0 l/m 0,0 km/h (0 Bft) N 0 0 min 0,000 mm 0 W/m 8,6 C 10,3 C 0,0 km/h (0 Bft) 97 %
26.05.2017 04:20 10,3 C 10,3 C 10,3 C 89 % 1020,1 hPa 0,0 l/m 0,0 km/h (0 Bft) N 0 0 min 0,000 mm 0 W/m 8,6 C 10,3 C 0,0 km/h (0 Bft) 98 %
26.05.2017 04:30 10,3 C 10,3 C 10,4 C 89 % 1020,1 hPa 0,0 l/m 0,0 km/h (0 Bft) N 0 0 min 0,000 mm 0 W/m 8,6 C 10,3 C 0,0 km/h (0 Bft) 98 %
26.05.2017 04:40 10,3 C 10,3 C 10,4 C 89 % 1020,1 hPa 0,0 l/m 0,0 km/h (0 Bft) N 0 0 min 0,000 mm 0 W/m 8,6 C 10,3 C 0,0 km/h (0 Bft) 97 %
26.05.2017 04:50 10,3 C 10,3 C 10,4 C 89 % 1020,1 hPa 0,0 l/m 0,0 km/h (0 Bft) N 0 0 min 0,000 mm 0 W/m 8,6 C 10,3 C 0,0 km/h (0 Bft) 97 %
26.05.2017 05:00 10,3 C 10,3 C 10,3 C 89 % 1020,0 hPa 0,0 l/m 0,0 km/h (0 Bft) N 0 0 min 0,000 mm 0 W/m 8,6 C 10,3 C 0,0 km/h (0 Bft) 97 %
26.05.2017 05:10 10,3 C 10,3 C 10,3 C 89 % 1020,0 hPa 0,0 l/m 0,0 km/h (0 Bft) N 0 0 min 0,000 mm 0 W/m 8,6 C 10,3 C 0,0 km/h (0 Bft) 98 %
26.05.2017 05:20 10,3 C 10,3 C 10,3 C 90 % 1020,0 hPa 0,0 l/m 0,0 km/h (0 Bft) N 0 0 min 0,000 mm 0 W/m 8,7 C 10,3 C 0,0 km/h (0 Bft) 97 %
26.05.2017 05:30 10,3 C 10,3 C 10,3 C 90 % 1020,1 hPa 0,0 l/m 0,0 km/h (0 Bft) N 0 0 min 0,000 mm 0 W/m 8,7 C 10,3 C 0,0 km/h (0 Bft) 98 %
26.05.2017 05:40 10,3 C 10,3 C 10,3 C 90 % 1020,2 hPa 0,0 l/m 0,0 km/h (0 Bft) N 0 0 min 0,000 mm 5 W/m 8,7 C 10,3 C 0,0 km/h (0 Bft) 98 %
26.05.2017 05:50 10,3 C 10,3 C 10,3 C 90 % 1020,1 hPa 0,0 l/m 0,0 km/h (0 Bft) N 0 0 min 0,000 mm 9 W/m 8,7 C 10,3 C 0,0 km/h (0 Bft) 97 %
26.05.2017 06:00 10,2 C 10,2 C 10,3 C 90 % 1020,1 hPa 0,0 l/m 0,0 km/h (0 Bft) N 0 0 min 0,000 mm 11 W/m 8,6 C 10,2 C 0,0 km/h (0 Bft) 98 %
26.05.2017 06:10 10,1 C 10,1 C 10,2 C 90 % 1020,2 hPa 0,0 l/m 0,0 km/h (0 Bft) N 0 0 min 0,000 mm 12 W/m 8,5 C 10,1 C 0,0 km/h (0 Bft) 97 %
26.05.2017 06:20 10,1 C 10,1 C 10,1 C 90 % 1020,1 hPa 0,0 l/m 0,0 km/h (0 Bft) N 0 0 min 0,000 mm 14 W/m 8,5 C 10,1 C 0,0 km/h (0 Bft) 98 %
26.05.2017 06:30 10,1 C 10,1 C 10,1 C 90 % 1020,1 hPa 0,0 l/m 0,0 km/h (0 Bft) N 0 0 min 0,000 mm 16 W/m 8,5 C 10,1 C 0,0 km/h (0 Bft) 97 %
26.05.2017 06:40 10,1 C 10,1 C 10,1 C 90 % 1020,1 hPa 0,0 l/m 0,0 km/h (0 Bft) N 0 0 min 0,000 mm 18 W/m 8,5 C 10,1 C 0,0 km/h (0 Bft) 98 %
26.05.2017 06:50 10,2 C 10,1 C 10,2 C 90 % 1020,1 hPa 0,0 l/m 0,0 km/h (0 Bft) N 0 0 min 0,000 mm 19 W/m 8,6 C 10,2 C 0,0 km/h (0 Bft) 97 %
26.05.2017 07:00 10,2 C 10,1 C 10,2 C 90 % 1020,2 hPa 0,0 l/m 0,0 km/h (0 Bft) N 0 0 min 0,000 mm 21 W/m 8,6 C 10,2 C 0,0 km/h (0 Bft) 98 %
26.05.2017 07:10 10,3 C 10,2 C 10,3 C 90 % 1020,2 hPa 0,0 l/m 0,0 km/h (0 Bft) N 0 0 min 0,000 mm 23 W/m 8,7 C 10,3 C 0,0 km/h (0 Bft) 98 %
26.05.2017 07:20 10,4 C 10,3 C 10,4 C 90 % 1020,3 hPa 0,0 l/m 0,0 km/h (0 Bft) N 0 0 min 0,000 mm 23 W/m 8,8 C 10,4 C 0,0 km/h (0 Bft) 97 %
26.05.2017 07:30 10,7 C 10,4 C 10,7 C 91 % 1020,4 hPa 0,0 l/m 0,0 km/h (0 Bft) N 0 0 min 0,000 mm 25 W/m 9,3 C 10,7 C 0,0 km/h (0 Bft) 98 %
26.05.2017 07:40 10,9 C 10,7 C 10,9 C 90 % 1020,5 hPa 0,0 l/m 0,0 km/h (0 Bft) N 0 0 min 0,000 mm 26 W/m 9,3 C 10,9 C 0,0 km/h (0 Bft) 97 %
26.05.2017 07:50 11,3 C 10,9 C 11,3 C 91 % 1020,5 hPa 0,0 l/m 0,0 km/h (0 Bft) N-NW 337 0 min 0,000 mm 28 W/m 9,9 C 11,3 C 1,6 km/h (1 Bft) 98 %
26.05.2017 08:00 11,7 C 11,3 C 11,7 C 90 % 1020,6 hPa 0,0 l/m 0,0 km/h (0 Bft) N 0 0 min 0,025 mm 32 W/m 10,1 C 11,7 C 0,0 km/h (0 Bft) 97 %
26.05.2017 08:10 12,1 C 11,7 C 12,1 C 90 % 1020,6 hPa 0,0 l/m 0,0 km/h (0 Bft) N 0 10 min 0,000 mm 285 W/m 10,5 C 12,1 C 0,0 km/h (0 Bft) 96 %
26.05.2017 08:20 12,8 C 12,1 C 12,8 C 90 % 1020,7 hPa 0,0 l/m 0,0 km/h (0 Bft) O-NO 67 10 min 0,000 mm 396 W/m 11,2 C 12,8 C 4,8 km/h (1 Bft) 98 %
26.05.2017 08:30 14,0 C 12,8 C 14,0 C 87 % 1020,7 hPa 0,0 l/m 0,0 km/h (0 Bft) O 90 10 min 0,000 mm 432 W/m 11,9 C 14,0 C 4,8 km/h (1 Bft) 97 %
26.05.2017 08:40 15,2 C 14,1 C 15,2 C 83 % 1020,7 hPa 0,0 l/m 1,6 km/h (1 Bft) O-NO 67 10 min 0,000 mm 471 W/m 12,3 C 15,2 C 6,4 km/h (2 Bft) 98 %
26.05.2017 08:50 16,3 C 15,3 C 16,3 C 80 % 1020,7 hPa 0,0 l/m 1,6 km/h (1 Bft) N-NW 337 10 min 0,000 mm 503 W/m 12,8 C 16,3 C 9,7 km/h (2 Bft) 97 %
26.05.2017 09:00 17,1 C 16,3 C 17,1 C 76 % 1020,8 hPa 0,0 l/m 0,0 km/h (0 Bft) O-SO 112 10 min 0,203 mm 533 W/m 12,8 C 17,1 C 6,4 km/h (2 Bft) 98 %
26.05.2017 09:10 17,9 C 17,1 C 17,9 C 76 % 1020,9 hPa 0,0 l/m 0,0 km/h (0 Bft) O-NO 67 10 min 0,000 mm 563 W/m 13,6 C 17,9 C 9,7 km/h (2 Bft) 97 %
26.05.2017 09:20 18,4 C 17,9 C 18,4 C 72 % 1020,9 hPa 0,0 l/m 1,6 km/h (1 Bft) O-SO 112 10 min 0,000 mm 589 W/m 13,3 C 18,4 C 8,0 km/h (2 Bft) 98 %
26.05.2017 09:30 18,9 C 18,4 C 18,9 C 69 % 1021,0 hPa 0,0 l/m 0,0 km/h (0 Bft) O-SO 112 10 min 0,000 mm 617 W/m 13,1 C 18,9 C 8,0 km/h (2 Bft) 98 %
26.05.2017 09:40 19,2 C 18,9 C 19,2 C 68 % 1021,0 hPa 0,0 l/m 0,0 km/h (0 Bft) NO 45 10 min 0,000 mm 643 W/m 13,1 C 19,2 C 14,5 km/h (3 Bft) 97 %
26.05.2017 09:50 19,6 C 19,2 C 19,6 C 69 % 1020,9 hPa 0,0 l/m 1,6 km/h (1 Bft) SO 135 10 min 0,000 mm 671 W/m 13,8 C 19,6 C 8,0 km/h (2 Bft) 98 %
26.05.2017 10:00 19,7 C 19,6 C 19,7 C 65 % 1020,8 hPa 0,0 l/m 0,0 km/h (0 Bft) SW 225 10 min 0,356 mm 694 W/m 12,9 C 19,7 C 4,8 km/h (1 Bft) 96 %
26.05.2017 10:10 20,0 C 19,7 C 20,0 C 68 % 1020,8 hPa 0,0 l/m 0,0 km/h (0 Bft) NO 45 10 min 0,000 mm 717 W/m 13,9 C 20,0 C 4,8 km/h (1 Bft) 98 %
26.05.2017 10:20 20,1 C 20,0 C 20,1 C 64 % 1020,8 hPa 0,0 l/m 1,6 km/h (1 Bft) O-SO 112 10 min 0,000 mm 740 W/m 13,1 C 20,1 C 9,7 km/h (2 Bft) 97 %
26.05.2017 10:30 20,3 C 20,1 C 20,3 C 63 % 1020,7 hPa 0,0 l/m 0,0 km/h (0 Bft) O 90 10 min 0,000 mm 761 W/m 13,0 C 20,3 C 8,0 km/h (2 Bft) 98 %
26.05.2017 10:40 20,6 C 20,3 C 20,6 C 64 % 1020,7 hPa 0,0 l/m 0,0 km/h (0 Bft) SO 135 10 min 0,000 mm 784 W/m 13,5 C 20,6 C 16,1 km/h (3 Bft) 98 %
26.05.2017 10:50 20,8 C 20,6 C 20,8 C 63 % 1020,8 hPa 0,0 l/m 0,0 km/h (0 Bft) SO 135 10 min 0,000 mm 798 W/m 13,5 C 20,8 C 6,4 km/h (2 Bft) 97 %
26.05.2017 11:00 21,2 C 20,8 C 21,2 C 67 % 1020,7 hPa 0,0 l/m 0,0 km/h (0 Bft) N-NW 337 10 min 0,432 mm 819 W/m 14,8 C 21,2 C 6,4 km/h (2 Bft) 98 %
26.05.2017 11:10 21,4 C 21,2 C 21,4 C 62 % 1020,6 hPa 0,0 l/m 1,6 km/h (1 Bft) NW 315 10 min 0,000 mm 835 W/m 13,8 C 21,4 C 8,0 km/h (2 Bft) 97 %
26.05.2017 11:20 21,6 C 21,4 C 21,6 C 60 % 1020,6 hPa 0,0 l/m 1,6 km/h (1 Bft) SW 225 10 min 0,000 mm 856 W/m 13,5 C 21,6 C 8,0 km/h (2 Bft) 97 %
26.05.2017 11:30 21,8 C 21,6 C 21,8 C 63 % 1020,5 hPa 0,0 l/m 1,6 km/h (1 Bft) SO 135 10 min 0,000 mm 870 W/m 14,4 C 21,8 C 9,7 km/h (2 Bft) 98 %
26.05.2017 11:40 22,1 C 21,8 C 22,1 C 58 % 1020,5 hPa 0,0 l/m 0,0 km/h (0 Bft) SW 225 10 min 0,000 mm 886 W/m 13,4 C 22,1 C 1,6 km/h (1 Bft) 98 %
26.05.2017 11:50 22,1 C 22,1 C 22,2 C 58 % 1020,4 hPa 0,0 l/m 1,6 km/h (1 Bft) O-SO 112 10 min 0,000 mm 895 W/m 13,4 C 22,1 C 11,3 km/h (2 Bft) 98 %
26.05.2017 12:00 22,4 C 22,1 C 22,4 C 61 % 1020,4 hPa 0,0 l/m 0,0 km/h (0 Bft) O 90 10 min 0,508 mm 937 W/m 14,5 C 22,4 C 1,6 km/h (1 Bft) 97 %
26.05.2017 12:10 22,4 C 22,4 C 22,5 C 59 % 1020,4 hPa 0,0 l/m 0,0 km/h (0 Bft) N-NO 22 10 min 0,000 mm 680 W/m 14,0 C 22,4 C 3,2 km/h (1 Bft) 98 %
26.05.2017 12:20 22,0 C 22,0 C 22,4 C 62 % 1020,4 hPa 0,0 l/m 0,0 km/h (0 Bft) N 360 10 min 0,000 mm 963 W/m 14,4 C 22,0 C 4,8 km/h (1 Bft) 97 %
26.05.2017 12:40 22,5 C 22,0 C 22,5 C 60 % 1020,2 hPa 0,0 l/m 2,0 km/h (1 Bft) N 351 20 min 0,000 mm 940 W/m 14,3 C 22,5 C 11,3 km/h (2 Bft) 100 %
26.05.2017 12:50 22,6 C 22,5 C 22,6 C 59 % 1020,2 hPa 0,0 l/m 0,8 km/h (0 Bft) S 184 10 min 0,000 mm 933 W/m 14,2 C 22,6 C 8,0 km/h (2 Bft) 100 %
26.05.2017 13:00 22,7 C 22,6 C 22,7 C 58 % 1020,0 hPa 0,0 l/m 0,0 km/h (0 Bft) S-SW 194 10 min 0,534 mm 939 W/m 14,0 C 22,7 C 1,6 km/h (1 Bft) 100 %
26.05.2017 13:10 22,6 C 22,6 C 22,7 C 57 % 1019,9 hPa 0,0 l/m 3,0 km/h (1 Bft) O-SO 110 10 min 0,000 mm 947 W/m 13,6 C 22,6 C 11,3 km/h (2 Bft) 100 %
26.05.2017 13:20 22,8 C 22,6 C 22,8 C 63 % 1019,9 hPa 0,0 l/m 3,4 km/h (1 Bft) O-NO 61 10 min 0,000 mm 940 W/m 15,4 C 22,8 C 19,3 km/h (3 Bft) 100 %
26.05.2017 13:30 22,9 C 22,8 C 22,9 C 58 % 1019,8 hPa 0,0 l/m 1,9 km/h (1 Bft) O-SO 115 10 min 0,000 mm 944 W/m 14,2 C 22,9 C 14,5 km/h (3 Bft) 100 %
26.05.2017 13:40 23,1 C 22,9 C 23,1 C 57 % 1019,8 hPa 0,0 l/m 1,4 km/h (1 Bft) SO 129 10 min 0,000 mm 937 W/m 14,1 C 23,1 C 8,0 km/h (2 Bft) 100 %
26.05.2017 13:50 23,2 C 23,1 C 23,2 C 58 % 1019,7 hPa 0,0 l/m 1,4 km/h (1 Bft) O 85 10 min 0,000 mm 939 W/m 14,5 C 23,2 C 9,7 km/h (2 Bft) 100 %
26.05.2017 14:00 23,2 C 23,2 C 23,3 C 59 % 1019,6 hPa 0,0 l/m 0,8 km/h (0 Bft) W-SW 254 10 min 0,584 mm 928 W/m 14,7 C 23,2 C 6,4 km/h (2 Bft) 100 %
26.05.2017 14:10 23,4 C 23,2 C 23,4 C 59 % 1019,7 hPa 0,0 l/m 0,8 km/h (0 Bft) W 273 10 min 0,000 mm 926 W/m 14,9 C 23,4 C 8,0 km/h (2 Bft) 100 %
26.05.2017 14:20 23,4 C 23,4 C 23,6 C 59 % 1019,5 hPa 0,0 l/m 0,0 km/h (0 Bft) N 360 10 min 0,000 mm 907 W/m 14,9 C 23,4 C 1,6 km/h (1 Bft) 100 %
26.05.2017 14:30 23,7 C 23,4 C 23,7 C 58 % 1019,4 hPa 0,0 l/m 0,3 km/h (0 Bft) W-NW 290 10 min 0,000 mm 904 W/m 14,9 C 23,7 C 4,8 km/h (1 Bft) 100 %
26.05.2017 14:40 23,9 C 23,7 C 23,9 C 57 % 1019,2 hPa 0,0 l/m 0,7 km/h (0 Bft) N-NW 329 10 min 0,000 mm 902 W/m 14,9 C 23,9 C 8,0 km/h (2 Bft) 100 %
26.05.2017 14:50 23,8 C 23,8 C 23,9 C 57 % 1019,1 hPa 0,0 l/m 0,9 km/h (0 Bft) W-NW 303 10 min 0,000 mm 373 W/m 14,8 C 23,8 C 6,4 km/h (2 Bft) 100 %
26.05.2017 15:00 23,9 C 23,7 C 23,9 C 60 % 1019,1 hPa 0,0 l/m 1,0 km/h (0 Bft) O-SO 115 10 min 0,533 mm 872 W/m 15,7 C 23,9 C 8,0 km/h (2 Bft) 100 %
26.05.2017 15:10 24,1 C 23,8 C 24,1 C 58 % 1018,9 hPa 0,0 l/m 1,7 km/h (1 Bft) NW 304 10 min 0,000 mm 404 W/m 15,3 C 24,1 C 9,7 km/h (2 Bft) 100 %
26.05.2017 15:20 24,1 C 24,1 C 24,1 C 57 % 1018,8 hPa 0,0 l/m 1,3 km/h (1 Bft) N-NO 14 0 min 0,000 mm 76 W/m 15,0 C 24,1 C 9,7 km/h (2 Bft) 100 %
26.05.2017 15:30 24,2 C 24,1 C 24,2 C 57 % 1018,7 hPa 0,0 l/m 0,5 km/h (0 Bft) SO 140 0 min 0,000 mm 72 W/m 15,1 C 24,2 C 8,0 km/h (2 Bft) 100 %
26.05.2017 15:40 24,2 C 24,2 C 24,2 C 56 % 1018,6 hPa 0,0 l/m 1,1 km/h (1 Bft) NO 53 0 min 0,000 mm 72 W/m 14,9 C 24,2 C 14,5 km/h (3 Bft) 100 %
26.05.2017 15:50 24,2 C 24,1 C 24,2 C 57 % 1018,4 hPa 0,0 l/m 0,8 km/h (0 Bft) S-SO 155 10 min 0,000 mm 691 W/m 15,1 C 24,2 C 9,7 km/h (2 Bft) 100 %
26.05.2017 16:00 24,0 C 24,0 C 24,2 C 54 % 1018,2 hPa 0,0 l/m 2,5 km/h (1 Bft) SO 128 10 min 0,204 mm 729 W/m 14,1 C 24,0 C 9,7 km/h (2 Bft) 100 %
26.05.2017 16:10 23,9 C 23,9 C 24,0 C 58 % 1018,3 hPa 0,0 l/m 1,9 km/h (1 Bft) SO 130 10 min 0,000 mm 733 W/m 15,1 C 23,9 C 11,3 km/h (2 Bft) 100 %
26.05.2017 16:20 24,1 C 23,9 C 24,1 C 57 % 1018,2 hPa 0,0 l/m 1,3 km/h (1 Bft) N-NO 33 10 min 0,000 mm 494 W/m 15,0 C 24,1 C 8,0 km/h (2 Bft) 100 %
26.05.2017 16:30 24,1 C 24,0 C 24,1 C 58 % 1018,1 hPa 0,0 l/m 2,2 km/h (1 Bft) N-NW 345 0 min 0,000 mm 123 W/m 15,3 C 24,1 C 11,3 km/h (2 Bft) 100 %
26.05.2017 16:40 24,2 C 24,1 C 24,2 C 54 % 1017,9 hPa 0,0 l/m 2,1 km/h (1 Bft) O-SO 119 0 min 0,000 mm 76 W/m 14,3 C 24,2 C 6,4 km/h (2 Bft) 100 %
26.05.2017 16:50 24,3 C 24,2 C 24,3 C 57 % 1018,0 hPa 0,0 l/m 1,3 km/h (1 Bft) O-NO 67 0 min 0,000 mm 58 W/m 15,2 C 24,3 C 9,7 km/h (2 Bft) 100 %
26.05.2017 17:00 24,4 C 24,3 C 24,4 C 56 % 1018,0 hPa 0,0 l/m 0,6 km/h (0 Bft) O-SO 108 0 min 0,203 mm 58 W/m 15,0 C 24,4 C 8,0 km/h (2 Bft) 100 %
26.05.2017 17:10 24,4 C 24,4 C 24,5 C 54 % 1017,9 hPa 0,0 l/m 0,8 km/h (0 Bft) O-SO 122 0 min 0,000 mm 58 W/m 14,5 C 24,4 C 9,7 km/h (2 Bft) 100 %
26.05.2017 17:20 24,3 C 24,3 C 24,4 C 58 % 1017,8 hPa 0,0 l/m 1,7 km/h (1 Bft) S 191 0 min 0,000 mm 56 W/m 15,5 C 24,3 C 9,7 km/h (2 Bft) 100 %
26.05.2017 17:30 24,3 C 24,3 C 24,3 C 56 % 1017,7 hPa 0,0 l/m 0,6 km/h (0 Bft) O 79 0 min 0,000 mm 56 W/m 14,9 C 24,3 C 9,7 km/h (2 Bft) 100 %
26.05.2017 17:40 24,3 C 24,3 C 24,4 C 56 % 1017,7 hPa 0,0 l/m 0,8 km/h (0 Bft) W-SW 250 0 min 0,000 mm 54 W/m 14,9 C 24,3 C 6,4 km/h (2 Bft) 100 %
26.05.2017 17:50 24,3 C 24,3 C 24,3 C 57 % 1017,8 hPa 0,0 l/m 0,2 km/h (0 Bft) S-SW 206 0 min 0,000 mm 54 W/m 15,2 C 24,3 C 3,2 km/h (1 Bft) 100 %
26.05.2017 18:00 24,1 C 24,1 C 24,3 C 58 % 1017,8 hPa 0,0 l/m 0,9 km/h (0 Bft) N-NO 19 0 min 0,051 mm 53 W/m 15,3 C 24,1 C 6,4 km/h (2 Bft) 100 %
26.05.2017 18:10 23,9 C 23,8 C 24,1 C 60 % 1017,7 hPa 0,0 l/m 0,7 km/h (0 Bft) N-NO 25 0 min 0,000 mm 51 W/m 15,7 C 23,9 C 6,4 km/h (2 Bft) 100 %
26.05.2017 18:20 23,8 C 23,8 C 23,9 C 58 % 1017,5 hPa 0,0 l/m 0,2 km/h (0 Bft) NO 35 0 min 0,000 mm 49 W/m 15,0 C 23,8 C 4,8 km/h (1 Bft) 100 %
26.05.2017 18:30 23,7 C 23,7 C 23,8 C 59 % 1017,4 hPa 0,0 l/m 0,3 km/h (0 Bft) N-NW 340 0 min 0,000 mm 47 W/m 15,2 C 23,7 C 6,4 km/h (2 Bft) 100 %
26.05.2017 18:40 23,5 C 23,5 C 23,7 C 59 % 1017,4 hPa 0,0 l/m 0,0 km/h (0 Bft) N-NW 329 0 min 0,000 mm 46 W/m 15,0 C 23,5 C 1,6 km/h (1 Bft) 100 %
26.05.2017 18:50 23,3 C 23,3 C 23,5 C 58 % 1017,4 hPa 0,0 l/m 1,0 km/h (0 Bft) S 186 0 min 0,000 mm 44 W/m 14,6 C 23,3 C 8,0 km/h (2 Bft) 100 %
26.05.2017 19:00 23,2 C 23,2 C 23,3 C 60 % 1017,5 hPa 0,0 l/m 0,3 km/h (0 Bft) N-NW 347 0 min 0,050 mm 42 W/m 15,0 C 23,2 C 4,8 km/h (1 Bft) 100 %
26.05.2017 19:10 23,0 C 23,0 C 23,2 C 60 % 1017,5 hPa 0,0 l/m 0,0 km/h (0 Bft) N 350 0 min 0,000 mm 40 W/m 14,8 C 23,0 C 1,6 km/h (1 Bft) 100 %
26.05.2017 19:20 22,8 C 22,8 C 23,0 C 61 % 1017,5 hPa 0,0 l/m 0,3 km/h (0 Bft) N 5 0 min 0,000 mm 39 W/m 14,9 C 22,8 C 11,3 km/h (2 Bft) 100 %
26.05.2017 19:30 22,6 C 22,6 C 22,8 C 59 % 1017,6 hPa 0,0 l/m 0,2 km/h (0 Bft) N 5 0 min 0,000 mm 37 W/m 14,2 C 22,6 C 6,4 km/h (2 Bft) 100 %
26.05.2017 19:40 22,3 C 22,3 C 22,6 C 61 % 1017,6 hPa 0,0 l/m 0,3 km/h (0 Bft) N-NO 12 0 min 0,000 mm 33 W/m 14,4 C 22,3 C 4,8 km/h (1 Bft) 100 %
26.05.2017 19:50 22,1 C 22,1 C 22,3 C 64 % 1017,6 hPa 0,0 l/m 0,1 km/h (0 Bft) N-NO 28 0 min 0,000 mm 30 W/m 15,0 C 22,1 C 3,2 km/h (1 Bft) 100 %
26.05.2017 20:00 21,8 C 21,8 C 22,1 C 64 % 1017,6 hPa 0,0 l/m 0,0 km/h (0 Bft) N-NO 32 0 min 0,026 mm 28 W/m 14,7 C 21,8 C 0,0 km/h (0 Bft) 100 %
26.05.2017 20:10 21,5 C 21,5 C 21,8 C 64 % 1017,6 hPa 0,0 l/m 0,0 km/h (0 Bft) N-NO 32 0 min 0,000 mm 25 W/m 14,4 C 21,5 C 0,0 km/h (0 Bft) 100 %
26.05.2017 20:20 21,3 C 21,3 C 21,5 C 66 % 1017,6 hPa 0,0 l/m 0,0 km/h (0 Bft) N-NO 32 0 min 0,000 mm 21 W/m 14,7 C 21,3 C 0,0 km/h (0 Bft) 100 %
26.05.2017 20:30 21,0 C 21,0 C 21,3 C 67 % 1017,6 hPa 0,0 l/m 0,0 km/h (0 Bft) N-NO 32 0 min 0,000 mm 19 W/m 14,6 C 21,0 C 0,0 km/h (0 Bft) 100 %
26.05.2017 20:40 20,7 C 20,7 C 21,0 C 69 % 1017,6 hPa 0,0 l/m 0,0 km/h (0 Bft) N-NO 32 0 min 0,000 mm 16 W/m 14,8 C 20,7 C 0,0 km/h (0 Bft) 100 %
26.05.2017 20:50 20,4 C 20,4 C 20,7 C 70 % 1017,6 hPa 0,0 l/m 0,0 km/h (0 Bft) N-NO 32 0 min 0,000 mm 12 W/m 14,7 C 20,4 C 0,0 km/h (0 Bft) 100 %
26.05.2017 21:00 19,9 C 19,9 C 20,4 C 71 % 1017,6 hPa 0,0 l/m 0,0 km/h (0 Bft) N-NO 32 0 min 0,025 mm 9 W/m 14,5 C 19,9 C 0,0 km/h (0 Bft) 100 %
26.05.2017 21:10 19,5 C 19,5 C 19,9 C 72 % 1017,5 hPa 0,0 l/m 0,0 km/h (0 Bft) N 0 0 min 0,000 mm 9 W/m 14,3 C 19,5 C 0,0 km/h (0 Bft) 97 %
26.05.2017 21:20 19,0 C 19,0 C 19,4 C 73 % 1017,6 hPa 0,0 l/m 0,0 km/h (0 Bft) N 0 0 min 0,000 mm 0 W/m 14,0 C 19,0 C 0,0 km/h (0 Bft) 97 %
26.05.2017 21:30 18,6 C 18,6 C 19,0 C 72 % 1017,7 hPa 0,0 l/m 0,0 km/h (0 Bft) N 0 0 min 0,000 mm 0 W/m 13,4 C 18,6 C 0,0 km/h (0 Bft) 97 %
26.05.2017 21:40 18,3 C 18,3 C 18,6 C 73 % 1017,6 hPa 0,0 l/m 0,0 km/h (0 Bft) N-NO 22 0 min 0,000 mm 0 W/m 13,4 C 18,3 C 3,2 km/h (1 Bft) 97 %
26.05.2017 21:50 18,2 C 18,2 C 18,3 C 73 % 1017,7 hPa 0,0 l/m 0,0 km/h (0 Bft) N 0 0 min 0,000 mm 0 W/m 13,3 C 18,2 C 0,0 km/h (0 Bft) 97 %
26.05.2017 22:00 18,0 C 18,0 C 18,2 C 73 % 1017,8 hPa 0,0 l/m 0,0 km/h (0 Bft) N 0 0 min 0,000 mm 0 W/m 13,1 C 18,0 C 0,0 km/h (0 Bft) 98 %
26.05.2017 22:10 17,8 C 17,8 C 18,1 C 74 % 1017,8 hPa 0,0 l/m 0,0 km/h (0 Bft) N 0 0 min 0,000 mm 0 W/m 13,1 C 17,8 C 0,0 km/h (0 Bft) 97 %
26.05.2017 22:20 17,7 C 17,7 C 17,8 C 74 % 1017,8 hPa 0,0 l/m 0,0 km/h (0 Bft) N 0 0 min 0,000 mm 0 W/m 13,0 C 17,7 C 0,0 km/h (0 Bft) 96 %
26.05.2017 22:30 17,6 C 17,6 C 17,7 C 74 % 1017,8 hPa 0,0 l/m 0,0 km/h (0 Bft) N-NO 22 0 min 0,000 mm 0 W/m 12,9 C 17,6 C 4,8 km/h (1 Bft) 97 %
26.05.2017 22:40 17,6 C 17,6 C 17,6 C 73 % 1017,8 hPa 0,0 l/m 1,6 km/h (1 Bft) N-NO 22 0 min 0,000 mm 0 W/m 12,7 C 17,6 C 6,4 km/h (2 Bft) 98 %
26.05.2017 22:50 17,7 C 17,6 C 17,7 C 73 % 1018,0 hPa 0,0 l/m 0,0 km/h (0 Bft) N-NO 22 0 min 0,000 mm 0 W/m 12,8 C 17,7 C 1,6 km/h (1 Bft) 97 %
26.05.2017 23:00 17,6 C 17,6 C 17,7 C 73 % 1018,1 hPa 0,0 l/m 0,0 km/h (0 Bft) N-NO 22 0 min 0,025 mm 0 W/m 12,7 C 17,6 C 4,8 km/h (1 Bft) 98 %
26.05.2017 23:10 17,4 C 17,4 C 17,6 C 74 % 1018,0 hPa 0,0 l/m 0,0 km/h (0 Bft) N 0 0 min 0,000 mm 0 W/m 12,7 C 17,4 C 0,0 km/h (0 Bft) 98 %
26.05.2017 23:20 17,2 C 17,2 C 17,4 C 74 % 1018,1 hPa 0,0 l/m 0,0 km/h (0 Bft) NO 45 0 min 0,000 mm 0 W/m 12,5 C 17,2 C 1,6 km/h (1 Bft) 98 %
26.05.2017 23:30 17,1 C 17,1 C 17,2 C 74 % 1018,2 hPa 0,0 l/m 0,0 km/h (0 Bft) NO 45 0 min 0,000 mm 0 W/m 12,4 C 17,1 C 4,8 km/h (1 Bft) 97 %
26.05.2017 23:40 17,1 C 17,1 C 17,2 C 73 % 1018,2 hPa 0,0 l/m 0,0 km/h (0 Bft) N 0 0 min 0,000 mm 0 W/m 12,2 C 17,1 C 0,0 km/h (0 Bft) 98 %
26.05.2017 23:50 17,2 C 17,1 C 17,2 C 72 % 1018,3 hPa 0,0 l/m 0,0 km/h (0 Bft) O 90 0 min 0,000 mm 0 W/m 12,1 C 17,2 C 3,2 km/h (1 Bft) 98 %
_ Min-Zeit 03:40 03:40 03:50 16:00 18:30 - 00:00 - - - - - 03:40 03:40 00:00 04:00
Minimum _ 10,1 C 10,1 C 10,1 C 54 % 1017,4 hPa - 0,0 km/h (0 Bft) - - - - - 8,2 C 10,1 C 0,0 km/h (0 Bft) 88 %
_ Max-Zeit 17:10 17:10 17:10 07:30 09:30 00:00 13:20 - - 12:40 14:00 12:20 15:00 17:00 13:20 00:00
Maximum _ 24,5 C 24,4 C 24,5 C 91 % 1021,0 hPa 0,0 l/m 3,4 km/h
O-NO (1 Bft)
- - 20 min 0,584 mm 963 W/m 15,7 C 24,4 C 19,3 km/h
N-NW (3 Bft)
100 %
Durchschnitt _ 17,6 C 17,5 C 17,7 C 73 % 1019,3 hPa #0,0 l/m 0,4 km/h (0 Bft) O-SO - #7:50 h #3,784 mm 388 W/m 12,3 C 17,6 C 3,9 km/h (1 Bft) 99 %
PRIVATE WETTERSTATION BILLIGHEIM-ALLFELD - www.neckar-odenwald-wetter.de - Holger Sonntag